Location: Peebles
(55.6412°N, 3.1714°W)
Time: 01:38:01
(UTC+01:00)

deb r/b Ablestar - Pass Details

Date: 04 July 2022
Orbit: 859 x 1154 km, 67.2° (Epoch: 13 August)

Event Time Altitude Azimuth Distance (km) Brightness Sun altitude
Rises 01:49:04 0° 318° (NW) 4,011 ? -11.2°
Reaches altitude 10° 01:51:47 10° 315° (NW) 3,060 ? -11.1°
Maximum altitude 01:58:59 61° 238° (WSW) 1,291 ? -11.0°
Drops below altitude 10° 02:06:03 10° 160° (SSE) 3,002 ? -10.8°
Enters shadow 02:06:46 - 159° (SSE) 3,247 ? -10.8°
